Hourly Data Report for December 27, 2003

SHERBROOKE A
QUEBEC

45°26'00.000" N
71°41'00.000" W
241.40 m
7028124
71610
YSC

Download Data

Hourly Data (December 2003)
Hourly Data Report for December 27, 2003
TIME
LST
Temp Definition
°C
Dew Point Definition
°C
Rel Hum Definition
%
Precip. Amount Definition
mm

Wind Dir Definition
10's deg

Wind Spd Definition
km/h
Visibility Definition
km
Stn Press Definition
kPa
Hmdx Definition


Wind Chill Definition


Weather Definition


00:00 -2.0 -4.7 82   28 13 15.0 98.38   -6  
01:00 -2.1 -5.1 80   30 22 15.0 98.47   -8  
02:00 -2.7 -5.3 82   29 19 15.0 98.58   -8  
03:00 -3.2 -5.6 83   25 9 15.0 98.67   -7  
04:00 -4.1 -6.6 83   28 20 15.0 98.73   -10  
05:00 -5.4 -7.7 84   26 15 15.0 98.80   -11  
06:00 -6.8 -9.4 82   28 17 15.0 98.94   -13  
07:00 -8.4 -10.8 83   28 11 15.0 99.08   -14  
08:00 -8.3 -10.4 85   27 9 24.1 99.19   -13 Clear
09:00 -7.7 -10.3 82   28 13 24.1 99.29   -13 Clear
10:00 -6.5 -9.5 79   27 13 24.1 99.37   -12 Clear
11:00 -5.7 -8.9 78   28 13 24.1 99.39   -11 Clear
12:00 -4.9 -8.4 76   27 13 24.1 99.37   -10 Clear
13:00 -4.8 -8.5 75   29 11 24.1 99.38   -9 Clear
14:00 -4.6 -8.5 74   28 13 24.1 99.47   -10 Clear
15:00 -4.7 -8.5 75   28 9 24.1 99.54   -9 Clear
16:00 -5.3 -9.2 74   30 7 24.1 99.59   -9 Clear
17:00 -7.9 -10.7 80   28 9 24.1 99.68   -12 Clear
18:00 -10.3 -12.3 85     0 15.0 99.71      
19:00 -11.7 -13.8 84   21 4 15.0 99.73   -14  
20:00 -12.3 -14.4 84     0 9.7 99.80      
21:00 -14.0 -16.0 85   12 7 15.0 99.85   -19  
22:00 -14.3 -16.5 83   10 6 15.0 99.87   -18  
23:00 -16.2 -17.7 88     0 15.0 99.83      

Notes on Data Quality.

Legend

  • E = Estimated
  • M = Missing
  • NA = Not Available*
  • [empty] = Indicates an unobserved value
Date modified: